Location: Bégole
(43.1574°N, 0.3291°E)
Time: 02:43:17
(UTC+00:00)

deb Delta 89 - Pass Details

Date: 29 February 2024
Orbit: 714 x 2021 km, 97.5° (Epoch: 13 April)

Event Time Altitude Azimuth Distance (km) Brightness Sun altitude
Rises 05:20:33 0° 6° (N) 5,478 ? -14.5°
Reaches altitude 10° 05:25:38 10° 348° (NNW) 4,476 ? -13.6°
Maximum altitude 05:31:17 16° 318° (NW) 3,934 ? -12.6°
Enters shadow 05:36:12 11° 289° (WNW) 4,178 ? -11.7°
